This is the latest recevied weather packets stored in our database for station/object K9NZF-2. If no packets are shown the sender has not sent any weather packets the latest 1 day(s).
| Time | Temp. | Humidity | Pressure | Rain* | Wind** | Luminosity | Snow |
|---|---|---|---|---|---|---|---|
| 1778075821 | 10° C | 76% | 974.4 hPa | 0 mm | - | - | - |
| 1778075582 | 10° C | 79% | 974.4 hPa | 0 mm | - | - | - |
| 1778074983 | 10° C | 79% | 974.3 hPa | 0 mm | - | - | - |
| 1778074741 | 10° C | 79% | 974.5 hPa | 0 mm | - | - | - |
| 1778074624 | 10° C | 81% | 974.5 hPa | 0 mm | - | - | - |
| 1778074562 | 10° C | 82% | 974.6 hPa | 0 mm | - | - | - |
| 1778074501 | 10° C | 82% | 974.5 hPa | 0 mm | - | - | - |
| 1778074144 | 9.44° C | 80% | 974.6 hPa | 0 mm | - | - | - |
| 1778073606 | 9.44° C | 84% | 974.5 hPa | 0 mm | - | - | - |
| 1778073234 | 8.89° C | 83% | 974.3 hPa | 0 mm | - | - | - |
| 1778073172 | 8.89° C | 83% | 974.4 hPa | 0 mm | - | - | - |
| 1778072808 | 8.89° C | 85% | 974.3 hPa | 0 mm | - | - | - |
| 1778072747 | 8.89° C | 85% | 974.3 hPa | 0 mm | - | - | - |
| 1778072500 | 8.33° C | 85% | 974.2 hPa | 0 mm | - | - | - |
| 1778072320 | 8.33° C | 86% | 974.1 hPa | 0 mm | - | - | - |
| 1778072199 | 8.33° C | 86% | 974.1 hPa | 0 mm | - | - | - |
| 1778072075 | 8.33° C | 86% | 974.3 hPa | 0 mm | - | - | - |
| 1778071897 | 8.33° C | 87% | 974.3 hPa | 0 mm | - | - | - |
| 1778071836 | 7.78° C | 88% | 974.3 hPa | 0 mm | - | - | - |
| 1778071710 | 7.78° C | 87% | 974.3 hPa | 0 mm | - | - | - |
| 1778071290 | 7.78° C | 89% | 974.1 hPa | 0 mm | - | - | - |
| 1778071171 | 7.22° C | 89% | 974.1 hPa | 0 mm | - | - | - |
| 1778071110 | 7.22° C | 89% | 974 hPa | 0 mm | - | - | - |
| 1778070332 | 6.67° C | 92% | 973.8 hPa | 0 mm | - | - | - |
| 1778070149 | 6.67° C | 93% | 973.7 hPa | 0 mm | - | - | - |
* Rain latest hour (hover to see other rain measurements)
** Current wind speed in m/s (hover to see current wind gust speed)